Location: Unspecified
(0.0000°N, 0.0000°E)
Time: 14:14:49
(UTC+02:00)

Cosmos 1892 Rocket - Visible Passes

Search period start: 22 June 2017 00:00
Search period end: 02 July 2017 00:00
Orbit: 605 x 635 km, 82.5° (Epoch: 21 June)

Date Brightness Start Highest point End Pass type
(mag) Time Alt. Az. Time Alt. Az. Time Alt. Az.
22 Jun 3.7 07:34:26 10° NNW 07:38:46 58° W 07:43:09 10° S visible
23 Jun 6.7 06:16:59 10° ENE 06:18:47 12° E 06:20:36 10° ESE visible
24 Jun 5.7 06:32:35 10° NNE 06:36:22 28° E 06:40:10 10° SE visible
25 Jun 4.0 06:49:33 10° N 06:53:56 65° E 06:58:22 10° SSE visible
26 Jun 3.7 07:07:13 10° NNW 07:11:32 52° W 07:15:52 10° S visible
27 Jun 6.6 05:49:15 10° NE 05:51:33 14° E 05:53:50 10° ESE visible
27 Jun 4.8 07:25:38 10° NW 07:29:08 23° W 07:32:38 10° SW visible
28 Jun 5.3 06:05:12 10° NNE 06:09:07 31° E 06:13:04 10° SSE visible
29 Jun 3.7 06:22:16 10° N 06:26:42 74° E 06:30:56 11° S visible
30 Jun 3.8 06:40:02 10° NNW 06:44:17 46° W 06:46:10 29° SSW visible
01 Jul 6.3 05:21:39 10° NE 05:24:18 16° E 05:24:47 15° E visible
01 Jul 4.9 06:58:35 10° NW 07:01:50 20° W 07:01:50 20° W visible
